Satellite-Ground Cal/Val Site Overpasses Predictions

Prediction of Satellite NPP Overpassing Cal/Val Site: Antarctic Dome C

Ground Cal/Val Site Location: Latitude: -75.10, Longitude: 123.35; Satellite-Ground Site NADIR distance within 100 km.

Table of predicted overpasses for the next 14.0 days since TLE Epoch: 2/22/2019
Interval Starting Time Ending Time Minimum Distance Time Minimum Distance (km)
1 02/23/2019 07:19:00 02/23/2019 07:19:20 02/23/2019 07:19:10 72.81
2 02/25/2019 15:01:14 02/25/2019 15:01:38 02/25/2019 15:01:26 59.08
3 02/26/2019 14:42:23 02/26/2019 14:42:48 02/26/2019 14:42:35 50.16
4 02/27/2019 07:44:04 02/27/2019 07:44:24 02/27/2019 07:44:14 72.19
5 02/28/2019 07:25:11 02/28/2019 07:25:38 02/28/2019 07:25:25 35.76
6 03/02/2019 15:07:37 03/02/2019 15:07:44 03/02/2019 15:07:40 96.64
7 03/03/2019 14:48:35 03/03/2019 14:49:04 03/03/2019 14:48:49 14.79
8 03/05/2019 07:31:23 03/05/2019 07:31:52 03/05/2019 07:31:38 1.44


NCC Satellite Cal/Val Overpasses Prediction Service
